#datetime,building,power
2022-01-06T00:00:00,mfh,26.56
2022-01-06T00:01:00,mfh,26.56
2022-01-06T00:02:00,mfh,25.73
2022-01-06T00:03:00,mfh,25.72
2022-01-06T00:04:00,mfh,25.81
2022-01-06T00:05:00,mfh,25.77
2022-01-06T00:06:00,mfh,26.38
2022-01-06T00:07:00,mfh,26.46
2022-01-06T00:08:00,mfh,26.41
2022-01-06T00:09:00,mfh,26.46
2022-01-06T00:10:00,mfh,25.78
2022-01-06T00:11:00,mfh,26.28
2022-01-06T00:12:00,mfh,25.94
2022-01-06T00:13:00,mfh,25.86
2022-01-06T00:14:00,mfh,26.50
2022-01-06T00:15:00,mfh,26.38
2022-01-06T00:16:00,mfh,26.32
2022-01-06T00:17:00,mfh,26.36
2022-01-06T00:18:00,mfh,25.69
2022-01-06T00:19:00,mfh,25.83
2022-01-06T00:20:00,mfh,25.81
2022-01-06T00:21:00,mfh,25.86
2022-01-06T00:22:00,mfh,26.00
2022-01-06T00:23:00,mfh,26.54
2022-01-06T00:24:00,mfh,26.57
2022-01-06T00:25:00,mfh,26.58
2022-01-06T00:26:00,mfh,26.46
2022-01-06T00:27:00,mfh,25.81
2022-01-06T00:28:00,mfh,25.81
2022-01-06T00:29:00,mfh,25.82
2022-01-06T00:30:00,mfh,25.81
2022-01-06T00:31:00,mfh,26.40
2022-01-06T00:32:00,mfh,26.49
2022-01-06T00:33:00,mfh,26.51
2022-01-06T00:34:00,mfh,28.89
2022-01-06T00:35:00,mfh,27.87
2022-01-06T00:36:00,mfh,27.85
2022-01-06T00:37:00,mfh,27.87
2022-01-06T00:38:00,mfh,27.76
2022-01-06T00:39:00,mfh,28.26
2022-01-06T00:40:00,mfh,28.36
2022-01-06T00:41:00,mfh,28.42
2022-01-06T00:42:00,mfh,28.45
2022-01-06T00:43:00,mfh,28.40
2022-01-06T00:44:00,mfh,27.74
2022-01-06T00:45:00,mfh,27.72
2022-01-06T00:46:00,mfh,27.71
2022-01-06T00:47:00,mfh,27.80
2022-01-06T00:48:00,mfh,28.41
2022-01-06T00:49:00,mfh,28.36
2022-01-06T00:50:00,mfh,28.24
2022-01-06T00:51:00,mfh,28.32
2022-01-06T00:52:00,mfh,27.44
2022-01-06T00:53:00,mfh,27.44
2022-01-06T00:54:00,mfh,27.43
2022-01-06T00:55:00,mfh,25.50
2022-01-06T00:56:00,mfh,25.87
2022-01-06T00:57:00,mfh,26.13
2022-01-06T00:58:00,mfh,26.22
2022-01-06T00:59:00,mfh,26.25
2022-01-06T01:00:00,mfh,26.29
2022-01-06T01:01:00,mfh,25.55
2022-01-06T01:02:00,mfh,25.55
2022-01-06T01:03:00,mfh,25.48
2022-01-06T01:04:00,mfh,25.44
2022-01-06T01:05:00,mfh,26.11
2022-01-06T01:06:00,mfh,26.19
2022-01-06T01:07:00,mfh,26.23
2022-01-06T01:08:00,mfh,26.59
2022-01-06T01:09:00,mfh,26.34
2022-01-06T01:10:00,mfh,25.61
2022-01-06T01:11:00,mfh,25.61
2022-01-06T01:12:00,mfh,25.70
2022-01-06T01:13:00,mfh,26.26
2022-01-06T01:14:00,mfh,26.32
2022-01-06T01:15:00,mfh,26.50
2022-01-06T01:16:00,mfh,27.13
2022-01-06T01:17:00,mfh,27.20
2022-01-06T01:18:00,mfh,26.48
2022-01-06T01:19:00,mfh,26.40
2022-01-06T01:20:00,mfh,25.60
2022-01-06T01:21:00,mfh,25.71
2022-01-06T01:22:00,mfh,26.64
2022-01-06T01:23:00,mfh,26.35
2022-01-06T01:24:00,mfh,26.40
2022-01-06T01:25:00,mfh,26.43
2022-01-06T01:26:00,mfh,26.94
2022-01-06T01:27:00,mfh,25.84
2022-01-06T01:28:00,mfh,25.83
2022-01-06T01:29:00,mfh,25.74
2022-01-06T01:30:00,mfh,26.36
2022-01-06T01:31:00,mfh,26.89
2022-01-06T01:32:00,mfh,26.58
2022-01-06T01:33:00,mfh,26.53
2022-01-06T01:34:00,mfh,26.58
2022-01-06T01:35:00,mfh,25.82
2022-01-06T01:36:00,mfh,25.82
2022-01-06T01:37:00,mfh,25.99
2022-01-06T01:38:00,mfh,27.10
2022-01-06T01:39:00,mfh,26.63
2022-01-06T01:40:00,mfh,26.57
2022-01-06T01:41:00,mfh,26.78
2022-01-06T01:42:00,mfh,26.52
2022-01-06T01:43:00,mfh,25.81
2022-01-06T01:44:00,mfh,25.82
2022-01-06T01:45:00,mfh,25.81
2022-01-06T01:46:00,mfh,25.81
2022-01-06T01:47:00,mfh,26.34
2022-01-06T01:48:00,mfh,28.48
2022-01-06T01:49:00,mfh,28.45
2022-01-06T01:50:00,mfh,28.58
2022-01-06T01:51:00,mfh,27.87
2022-01-06T01:52:00,mfh,27.76
2022-01-06T01:53:00,mfh,27.68
2022-01-06T01:54:00,mfh,27.67
2022-01-06T01:55:00,mfh,28.31
2022-01-06T01:56:00,mfh,28.31
2022-01-06T01:57:00,mfh,28.28
2022-01-06T01:58:00,mfh,28.39
2022-01-06T01:59:00,mfh,27.65
2022-01-06T02:00:00,mfh,27.68
2022-01-06T02:01:00,mfh,27.85
2022-01-06T02:02:00,mfh,27.75
2022-01-06T02:03:00,mfh,27.69
2022-01-06T02:04:00,mfh,28.31
2022-01-06T02:05:00,mfh,28.32
2022-01-06T02:06:00,mfh,28.65
2022-01-06T02:07:00,mfh,28.41
2022-01-06T02:08:00,mfh,27.74
2022-01-06T02:09:00,mfh,27.76
2022-01-06T02:10:00,mfh,25.71
2022-01-06T02:11:00,mfh,26.10
2022-01-06T02:12:00,mfh,26.47
2022-01-06T02:13:00,mfh,26.44
2022-01-06T02:14:00,mfh,26.44
2022-01-06T02:15:00,mfh,27.46
2022-01-06T02:16:00,mfh,25.82
2022-01-06T02:17:00,mfh,25.82
2022-01-06T02:18:00,mfh,25.91
2022-01-06T02:19:00,mfh,25.79
2022-01-06T02:20:00,mfh,26.50
2022-01-06T02:21:00,mfh,26.39
2022-01-06T02:22:00,mfh,26.52
2022-01-06T02:23:00,mfh,26.58
2022-01-06T02:24:00,mfh,26.70
2022-01-06T02:25:00,mfh,27.13
2022-01-06T02:26:00,mfh,25.90
2022-01-06T02:27:00,mfh,25.89
2022-01-06T02:28:00,mfh,25.80
2022-01-06T02:29:00,mfh,26.45
2022-01-06T02:30:00,mfh,26.31
2022-01-06T02:31:00,mfh,26.35
2022-01-06T02:32:00,mfh,26.32
2022-01-06T02:33:00,mfh,26.30
2022-01-06T02:34:00,mfh,25.60
2022-01-06T02:35:00,mfh,25.61
2022-01-06T02:36:00,mfh,25.62
2022-01-06T02:37:00,mfh,26.64
2022-01-06T02:38:00,mfh,26.23
2022-01-06T02:39:00,mfh,26.31
2022-01-06T02:40:00,mfh,26.37
2022-01-06T02:41:00,mfh,26.41
2022-01-06T02:42:00,mfh,25.73
2022-01-06T02:43:00,mfh,25.65
2022-01-06T02:44:00,mfh,25.53
2022-01-06T02:45:00,mfh,25.55
2022-01-06T02:46:00,mfh,26.11
2022-01-06T02:47:00,mfh,26.12
2022-01-06T02:48:00,mfh,26.14
2022-01-06T02:49:00,mfh,26.26
2022-01-06T02:50:00,mfh,26.32
2022-01-06T02:51:00,mfh,25.60
2022-01-06T02:52:00,mfh,25.66
2022-01-06T02:53:00,mfh,25.66
2022-01-06T02:54:00,mfh,26.91
2022-01-06T02:55:00,mfh,26.96
2022-01-06T02:56:00,mfh,25.59
2022-01-06T02:57:00,mfh,25.70
2022-01-06T02:58:00,mfh,25.73
2022-01-06T02:59:00,mfh,26.36
2022-01-06T03:00:00,mfh,28.34
2022-01-06T03:01:00,mfh,47.75
2022-01-06T03:02:00,mfh,48.11
2022-01-06T03:03:00,mfh,48.42
2022-01-06T03:04:00,mfh,48.38
2022-01-06T03:05:00,mfh,47.79
2022-01-06T03:06:00,mfh,47.73
2022-01-06T03:07:00,mfh,47.02
2022-01-06T03:08:00,mfh,48.05
2022-01-06T03:09:00,mfh,46.67
2022-01-06T03:10:00,mfh,46.74
2022-01-06T03:11:00,mfh,47.29
2022-01-06T03:12:00,mfh,47.74
2022-01-06T03:13:00,mfh,47.54
2022-01-06T03:14:00,mfh,47.85
2022-01-06T03:15:00,mfh,47.42
2022-01-06T03:16:00,mfh,46.69
2022-01-06T03:17:00,mfh,47.33
2022-01-06T03:18:00,mfh,47.37
2022-01-06T03:19:00,mfh,47.47
2022-01-06T03:20:00,mfh,47.23
2022-01-06T03:21:00,mfh,57.79
2022-01-06T03:22:00,mfh,55.59
2022-01-06T03:23:00,mfh,55.18
2022-01-06T03:24:00,mfh,55.14
2022-01-06T03:25:00,mfh,55.71
2022-01-06T03:26:00,mfh,55.60
2022-01-06T03:27:00,mfh,55.55
2022-01-06T03:28:00,mfh,55.53
2022-01-06T03:29:00,mfh,56.36
2022-01-06T03:30:00,mfh,54.82
2022-01-06T03:31:00,mfh,54.84
2022-01-06T03:32:00,mfh,54.90
2022-01-06T03:33:00,mfh,54.81
2022-01-06T03:34:00,mfh,55.47
2022-01-06T03:35:00,mfh,55.56
2022-01-06T03:36:00,mfh,55.52
2022-01-06T03:37:00,mfh,56.41
2022-01-06T03:38:00,mfh,55.04
2022-01-06T03:39:00,mfh,54.91
2022-01-06T03:40:00,mfh,54.79
2022-01-06T03:41:00,mfh,54.82
2022-01-06T03:42:00,mfh,55.53
2022-01-06T03:43:00,mfh,56.03
2022-01-06T03:44:00,mfh,55.71
2022-01-06T03:45:00,mfh,56.09
2022-01-06T03:46:00,mfh,55.54
2022-01-06T03:47:00,mfh,54.96
2022-01-06T03:48:00,mfh,54.96
2022-01-06T03:49:00,mfh,54.96
2022-01-06T03:50:00,mfh,54.95
2022-01-06T03:51:00,mfh,55.52
2022-01-06T03:52:00,mfh,55.58
2022-01-06T03:53:00,mfh,55.59
2022-01-06T03:54:00,mfh,56.15
2022-01-06T03:55:00,mfh,55.08
2022-01-06T03:56:00,mfh,55.17
2022-01-06T03:57:00,mfh,55.22
2022-01-06T03:58:00,mfh,55.10
2022-01-06T03:59:00,mfh,55.74
2022-01-06T04:00:00,mfh,55.64
2022-01-06T04:01:00,mfh,55.49
2022-01-06T04:02:00,mfh,55.51
2022-01-06T04:03:00,mfh,55.49
2022-01-06T04:04:00,mfh,54.81
2022-01-06T04:05:00,mfh,55.87
2022-01-06T04:06:00,mfh,55.58
2022-01-06T04:07:00,mfh,54.94
2022-01-06T04:08:00,mfh,55.58
2022-01-06T04:09:00,mfh,55.59
2022-01-06T04:10:00,mfh,55.58
2022-01-06T04:11:00,mfh,55.47
2022-01-06T04:12:00,mfh,54.79
2022-01-06T04:13:00,mfh,54.82
2022-01-06T04:14:00,mfh,54.73
2022-01-06T04:15:00,mfh,54.60
2022-01-06T04:16:00,mfh,57.87
2022-01-06T04:17:00,mfh,57.53
2022-01-06T04:18:00,mfh,57.54
2022-01-06T04:19:00,mfh,57.58
2022-01-06T04:20:00,mfh,57.90
2022-01-06T04:21:00,mfh,56.95
2022-01-06T04:22:00,mfh,56.85
2022-01-06T04:23:00,mfh,56.85
2022-01-06T04:24:00,mfh,56.75
2022-01-06T04:25:00,mfh,57.33
2022-01-06T04:26:00,mfh,57.40
2022-01-06T04:27:00,mfh,57.36
2022-01-06T04:28:00,mfh,57.40
2022-01-06T04:29:00,mfh,57.36
2022-01-06T04:30:00,mfh,57.13
2022-01-06T04:31:00,mfh,57.46
2022-01-06T04:32:00,mfh,57.57
2022-01-06T04:33:00,mfh,57.43
2022-01-06T04:34:00,mfh,58.01
2022-01-06T04:35:00,mfh,58.04
2022-01-06T04:36:00,mfh,58.12
2022-01-06T04:37:00,mfh,58.10
2022-01-06T04:38:00,mfh,57.25
2022-01-06T04:39:00,mfh,55.34
2022-01-06T04:40:00,mfh,55.38
2022-01-06T04:41:00,mfh,55.53
2022-01-06T04:42:00,mfh,56.18
2022-01-06T04:43:00,mfh,56.23
2022-01-06T04:44:00,mfh,56.32
2022-01-06T04:45:00,mfh,56.27
2022-01-06T04:46:00,mfh,56.33
2022-01-06T04:47:00,mfh,55.73
2022-01-06T04:48:00,mfh,55.63
2022-01-06T04:49:00,mfh,55.63
2022-01-06T04:50:00,mfh,56.27
2022-01-06T04:51:00,mfh,56.19
2022-01-06T04:52:00,mfh,56.21
2022-01-06T04:53:00,mfh,56.25
2022-01-06T04:54:00,mfh,56.29
2022-01-06T04:55:00,mfh,55.74
2022-01-06T04:56:00,mfh,55.88
2022-01-06T04:57:00,mfh,55.73
2022-01-06T04:58:00,mfh,55.74
2022-01-06T04:59:00,mfh,56.32
2022-01-06T05:00:00,mfh,56.23
2022-01-06T05:01:00,mfh,56.15
2022-01-06T05:02:00,mfh,56.24
2022-01-06T05:03:00,mfh,56.22
2022-01-06T05:04:00,mfh,55.38
2022-01-06T05:05:00,mfh,55.45
2022-01-06T05:06:00,mfh,55.38
2022-01-06T05:07:00,mfh,55.96
2022-01-06T05:08:00,mfh,56.34
2022-01-06T05:09:00,mfh,56.05
2022-01-06T05:10:00,mfh,55.93
2022-01-06T05:11:00,mfh,55.98
2022-01-06T05:12:00,mfh,55.39
2022-01-06T05:13:00,mfh,55.47
2022-01-06T05:14:00,mfh,55.48
2022-01-06T05:15:00,mfh,56.59
2022-01-06T05:16:00,mfh,56.17
2022-01-06T05:17:00,mfh,56.23
2022-01-06T05:18:00,mfh,56.22
2022-01-06T05:19:00,mfh,56.96
2022-01-06T05:20:00,mfh,56.34
2022-01-06T05:21:00,mfh,56.36
2022-01-06T05:22:00,mfh,56.49
2022-01-06T05:23:00,mfh,55.92
2022-01-06T05:24:00,mfh,56.07
2022-01-06T05:25:00,mfh,56.13
2022-01-06T05:26:00,mfh,56.20
2022-01-06T05:27:00,mfh,56.53
2022-01-06T05:28:00,mfh,56.08
2022-01-06T05:29:00,mfh,55.55
2022-01-06T05:30:00,mfh,55.52
2022-01-06T05:31:00,mfh,55.52
2022-01-06T05:32:00,mfh,55.45
2022-01-06T05:33:00,mfh,58.01
2022-01-06T05:34:00,mfh,59.54
2022-01-06T05:35:00,mfh,58.23
2022-01-06T05:36:00,mfh,55.85
2022-01-06T05:37:00,mfh,47.27
2022-01-06T05:38:00,mfh,47.05
2022-01-06T05:39:00,mfh,47.08
2022-01-06T05:40:00,mfh,47.25
2022-01-06T05:41:00,mfh,48.17
2022-01-06T05:42:00,mfh,48.50
2022-01-06T05:43:00,mfh,48.76
2022-01-06T05:44:00,mfh,48.55
2022-01-06T05:45:00,mfh,47.85
2022-01-06T05:46:00,mfh,47.12
2022-01-06T05:47:00,mfh,47.13
2022-01-06T05:48:00,mfh,47.59
2022-01-06T05:49:00,mfh,47.40
2022-01-06T05:50:00,mfh,48.18
2022-01-06T05:51:00,mfh,48.43
2022-01-06T05:52:00,mfh,48.32
2022-01-06T05:53:00,mfh,48.33
2022-01-06T05:54:00,mfh,47.77
2022-01-06T05:55:00,mfh,45.98
2022-01-06T05:56:00,mfh,46.03
2022-01-06T05:57:00,mfh,46.04
2022-01-06T05:58:00,mfh,46.59
2022-01-06T05:59:00,mfh,46.68
2022-01-06T06:00:00,mfh,46.32
2022-01-06T06:01:00,mfh,46.20
2022-01-06T06:02:00,mfh,46.12
2022-01-06T06:03:00,mfh,45.53
2022-01-06T06:04:00,mfh,45.40
2022-01-06T06:05:00,mfh,46.96
2022-01-06T06:06:00,mfh,47.60
2022-01-06T06:07:00,mfh,49.36
2022-01-06T06:08:00,mfh,48.92
2022-01-06T06:09:00,mfh,48.10
2022-01-06T06:10:00,mfh,47.80
2022-01-06T06:11:00,mfh,48.38
2022-01-06T06:12:00,mfh,48.10
2022-01-06T06:13:00,mfh,47.92
2022-01-06T06:14:00,mfh,47.34
2022-01-06T06:15:00,mfh,48.37
2022-01-06T06:16:00,mfh,48.40
2022-01-06T06:17:00,mfh,48.40
2022-01-06T06:18:00,mfh,48.36
2022-01-06T06:19:00,mfh,47.38
2022-01-06T06:20:00,mfh,47.56
2022-01-06T06:21:00,mfh,47.48
2022-01-06T06:22:00,mfh,47.59
2022-01-06T06:23:00,mfh,48.69
2022-01-06T06:24:00,mfh,48.64
2022-01-06T06:25:00,mfh,48.05
2022-01-06T06:26:00,mfh,47.88
2022-01-06T06:27:00,mfh,48.23
2022-01-06T06:28:00,mfh,47.63
2022-01-06T06:29:00,mfh,47.14
2022-01-06T06:30:00,mfh,46.12
2022-01-06T06:31:00,mfh,45.95
2022-01-06T06:32:00,mfh,46.47
2022-01-06T06:33:00,mfh,46.47
2022-01-06T06:34:00,mfh,46.33
2022-01-06T06:35:00,mfh,46.21
2022-01-06T06:36:00,mfh,46.33
2022-01-06T06:37:00,mfh,45.68
2022-01-06T06:38:00,mfh,45.57
2022-01-06T06:39:00,mfh,45.79
2022-01-06T06:40:00,mfh,45.44
2022-01-06T06:41:00,mfh,46.01
2022-01-06T06:42:00,mfh,45.84
2022-01-06T06:43:00,mfh,45.86
2022-01-06T06:44:00,mfh,45.70
2022-01-06T06:45:00,mfh,44.65
2022-01-06T06:46:00,mfh,44.78
2022-01-06T06:47:00,mfh,45.26
2022-01-06T06:48:00,mfh,47.25
2022-01-06T06:49:00,mfh,47.84
2022-01-06T06:50:00,mfh,47.74
2022-01-06T06:51:00,mfh,47.88
2022-01-06T06:52:00,mfh,47.87
2022-01-06T06:53:00,mfh,47.20
2022-01-06T06:54:00,mfh,47.14
2022-01-06T06:55:00,mfh,47.52
2022-01-06T06:56:00,mfh,47.38
2022-01-06T06:57:00,mfh,48.11
2022-01-06T06:58:00,mfh,48.27
2022-01-06T06:59:00,mfh,48.11
2022-01-06T07:00:00,mfh,47.99
2022-01-06T07:01:00,mfh,48.23
2022-01-06T07:02:00,mfh,47.53
2022-01-06T07:03:00,mfh,46.72
2022-01-06T07:04:00,mfh,48.09
2022-01-06T07:05:00,mfh,46.93
2022-01-06T07:06:00,mfh,47.47
2022-01-06T07:07:00,mfh,47.58
2022-01-06T07:08:00,mfh,47.65
2022-01-06T07:09:00,mfh,47.34
2022-01-06T07:10:00,mfh,46.75
2022-01-06T07:11:00,mfh,46.13
2022-01-06T07:12:00,mfh,44.61
2022-01-06T07:13:00,mfh,44.70
2022-01-06T07:14:00,mfh,45.91
2022-01-06T07:15:00,mfh,46.01
2022-01-06T07:16:00,mfh,45.93
2022-01-06T07:17:00,mfh,45.97
2022-01-06T07:18:00,mfh,45.25
2022-01-06T07:19:00,mfh,45.17
2022-01-06T07:20:00,mfh,44.80
2022-01-06T07:21:00,mfh,44.71
2022-01-06T07:22:00,mfh,46.39
2022-01-06T07:23:00,mfh,44.67
2022-01-06T07:24:00,mfh,44.67
2022-01-06T07:25:00,mfh,44.49
2022-01-06T07:26:00,mfh,45.50
2022-01-06T07:27:00,mfh,63.59
2022-01-06T07:28:00,mfh,66.64
2022-01-06T07:29:00,mfh,68.17
2022-01-06T07:30:00,mfh,68.99
2022-01-06T07:31:00,mfh,68.67
2022-01-06T07:32:00,mfh,68.45
2022-01-06T07:33:00,mfh,68.44
2022-01-06T07:34:00,mfh,68.71
2022-01-06T07:35:00,mfh,67.57
2022-01-06T07:36:00,mfh,67.50
2022-01-06T07:37:00,mfh,64.83
2022-01-06T07:38:00,mfh,59.03
2022-01-06T07:39:00,mfh,59.64
2022-01-06T07:40:00,mfh,44.37
2022-01-06T07:41:00,mfh,44.73
2022-01-06T07:42:00,mfh,44.70
2022-01-06T07:43:00,mfh,43.89
2022-01-06T07:44:00,mfh,43.96
2022-01-06T07:45:00,mfh,43.93
2022-01-06T07:46:00,mfh,44.06
2022-01-06T07:47:00,mfh,44.91
2022-01-06T07:48:00,mfh,45.29
2022-01-06T07:49:00,mfh,45.17
2022-01-06T07:50:00,mfh,45.32
2022-01-06T07:51:00,mfh,45.20
2022-01-06T07:52:00,mfh,45.37
2022-01-06T07:53:00,mfh,44.67
2022-01-06T07:54:00,mfh,44.85
2022-01-06T07:55:00,mfh,44.78
2022-01-06T07:56:00,mfh,45.41
2022-01-06T07:57:00,mfh,45.49
2022-01-06T07:58:00,mfh,45.63
2022-01-06T07:59:00,mfh,45.77
2022-01-06T08:00:00,mfh,45.60
2022-01-06T08:01:00,mfh,44.74
2022-01-06T08:02:00,mfh,54.66
2022-01-06T08:03:00,mfh,46.66
2022-01-06T08:04:00,mfh,47.82
2022-01-06T08:05:00,mfh,47.41
2022-01-06T08:06:00,mfh,47.54
2022-01-06T08:07:00,mfh,47.50
2022-01-06T08:08:00,mfh,47.31
2022-01-06T08:09:00,mfh,46.59
2022-01-06T08:10:00,mfh,46.39
2022-01-06T08:11:00,mfh,47.31
2022-01-06T08:12:00,mfh,46.13
2022-01-06T08:13:00,mfh,46.66
2022-01-06T08:14:00,mfh,46.57
2022-01-06T08:15:00,mfh,46.54
2022-01-06T08:16:00,mfh,46.79
2022-01-06T08:17:00,mfh,46.16
2022-01-06T08:18:00,mfh,46.02
2022-01-06T08:19:00,mfh,46.15
2022-01-06T08:20:00,mfh,46.08
2022-01-06T08:21:00,mfh,46.96
2022-01-06T08:22:00,mfh,46.81
2022-01-06T08:23:00,mfh,46.67
2022-01-06T08:24:00,mfh,44.99
2022-01-06T08:25:00,mfh,44.33
2022-01-06T08:26:00,mfh,44.40
2022-01-06T08:27:00,mfh,44.42
2022-01-06T08:28:00,mfh,44.34
2022-01-06T08:29:00,mfh,44.94
2022-01-06T08:30:00,mfh,44.95
2022-01-06T08:31:00,mfh,45.83
2022-01-06T08:32:00,mfh,44.88
2022-01-06T08:33:00,mfh,44.92
2022-01-06T08:34:00,mfh,44.30
2022-01-06T08:35:00,mfh,44.47
2022-01-06T08:36:00,mfh,44.39
2022-01-06T08:37:00,mfh,44.43
2022-01-06T08:38:00,mfh,45.09
2022-01-06T08:39:00,mfh,45.12
2022-01-06T08:40:00,mfh,45.15
2022-01-06T08:41:00,mfh,45.22
2022-01-06T08:42:00,mfh,44.66
2022-01-06T08:43:00,mfh,44.69
2022-01-06T08:44:00,mfh,44.60
2022-01-06T08:45:00,mfh,44.40
2022-01-06T08:46:00,mfh,44.92
2022-01-06T08:47:00,mfh,44.91
2022-01-06T08:48:00,mfh,45.09
2022-01-06T08:49:00,mfh,45.20
2022-01-06T08:50:00,mfh,45.99
2022-01-06T08:51:00,mfh,44.68
2022-01-06T08:52:00,mfh,44.58
2022-01-06T08:53:00,mfh,44.72
2022-01-06T08:54:00,mfh,45.86
2022-01-06T08:55:00,mfh,45.88
2022-01-06T08:56:00,mfh,45.66
2022-01-06T08:57:00,mfh,45.80
2022-01-06T08:58:00,mfh,45.33
2022-01-06T08:59:00,mfh,44.74
2022-01-06T09:00:00,mfh,45.16
2022-01-06T09:01:00,mfh,45.00
2022-01-06T09:02:00,mfh,44.86
2022-01-06T09:03:00,mfh,45.52
2022-01-06T09:04:00,mfh,45.75
2022-01-06T09:05:00,mfh,45.89
2022-01-06T09:06:00,mfh,45.88
2022-01-06T09:07:00,mfh,46.09
2022-01-06T09:08:00,mfh,45.31
2022-01-06T09:09:00,mfh,45.63
2022-01-06T09:10:00,mfh,45.65
2022-01-06T09:11:00,mfh,46.30
2022-01-06T09:12:00,mfh,46.42
2022-01-06T09:13:00,mfh,46.28
2022-01-06T09:14:00,mfh,46.33
2022-01-06T09:15:00,mfh,46.39
2022-01-06T09:16:00,mfh,46.14
2022-01-06T09:17:00,mfh,45.64
2022-01-06T09:18:00,mfh,47.56
2022-01-06T09:19:00,mfh,48.11
2022-01-06T09:20:00,mfh,48.41
2022-01-06T09:21:00,mfh,50.00
2022-01-06T09:22:00,mfh,50.20
2022-01-06T09:23:00,mfh,50.26
2022-01-06T09:24:00,mfh,49.56
2022-01-06T09:25:00,mfh,49.30
2022-01-06T09:26:00,mfh,49.34
2022-01-06T09:27:00,mfh,48.29
2022-01-06T09:28:00,mfh,48.95
2022-01-06T09:29:00,mfh,48.90
2022-01-06T09:30:00,mfh,48.84
2022-01-06T09:31:00,mfh,49.06
2022-01-06T09:32:00,mfh,47.81
2022-01-06T09:33:00,mfh,47.95
2022-01-06T09:34:00,mfh,47.47
2022-01-06T09:35:00,mfh,47.10
2022-01-06T09:36:00,mfh,47.82
2022-01-06T09:37:00,mfh,47.78
2022-01-06T09:38:00,mfh,48.12
2022-01-06T09:39:00,mfh,48.02
2022-01-06T09:40:00,mfh,46.02
2022-01-06T09:41:00,mfh,45.40
2022-01-06T09:42:00,mfh,45.51
2022-01-06T09:43:00,mfh,45.63
2022-01-06T09:44:00,mfh,45.58
2022-01-06T09:45:00,mfh,46.30
2022-01-06T09:46:00,mfh,46.31
2022-01-06T09:47:00,mfh,46.22
2022-01-06T09:48:00,mfh,45.72
2022-01-06T09:49:00,mfh,45.15
2022-01-06T09:50:00,mfh,46.21
2022-01-06T09:51:00,mfh,45.20
2022-01-06T09:52:00,mfh,45.19
2022-01-06T09:53:00,mfh,46.14
2022-01-06T09:54:00,mfh,46.52
2022-01-06T09:55:00,mfh,46.11
2022-01-06T09:56:00,mfh,46.15
2022-01-06T09:57:00,mfh,45.97
2022-01-06T09:58:00,mfh,45.82
2022-01-06T09:59:00,mfh,45.72
2022-01-06T10:00:00,mfh,45.84
2022-01-06T10:01:00,mfh,46.04
2022-01-06T10:02:00,mfh,46.61
2022-01-06T10:03:00,mfh,46.59
2022-01-06T10:04:00,mfh,46.85
2022-01-06T10:05:00,mfh,46.84
2022-01-06T10:06:00,mfh,46.15
2022-01-06T10:07:00,mfh,46.19
2022-01-06T10:08:00,mfh,46.06
2022-01-06T10:09:00,mfh,46.05
2022-01-06T10:10:00,mfh,46.82
2022-01-06T10:11:00,mfh,46.80
2022-01-06T10:12:00,mfh,46.75
2022-01-06T10:13:00,mfh,46.85
2022-01-06T10:14:00,mfh,47.19
2022-01-06T10:15:00,mfh,46.02
2022-01-06T10:16:00,mfh,45.91
2022-01-06T10:17:00,mfh,45.88
2022-01-06T10:18:00,mfh,46.42
2022-01-06T10:19:00,mfh,47.19
2022-01-06T10:20:00,mfh,46.01
2022-01-06T10:21:00,mfh,46.41
2022-01-06T10:22:00,mfh,46.00
2022-01-06T10:23:00,mfh,45.90
2022-01-06T10:24:00,mfh,47.02
2022-01-06T10:25:00,mfh,46.74
2022-01-06T10:26:00,mfh,46.81
2022-01-06T10:27:00,mfh,46.72
2022-01-06T10:28:00,mfh,46.02
2022-01-06T10:29:00,mfh,46.05
2022-01-06T10:30:00,mfh,46.04
2022-01-06T10:31:00,mfh,46.21
2022-01-06T10:32:00,mfh,46.30
2022-01-06T10:33:00,mfh,46.86
2022-01-06T10:34:00,mfh,48.82
2022-01-06T10:35:00,mfh,49.12
2022-01-06T10:36:00,mfh,49.45
2022-01-06T10:37:00,mfh,48.64
2022-01-06T10:38:00,mfh,48.64
2022-01-06T10:39:00,mfh,48.48
2022-01-06T10:40:00,mfh,48.42
2022-01-06T10:41:00,mfh,49.04
2022-01-06T10:42:00,mfh,49.05
2022-01-06T10:43:00,mfh,49.04
2022-01-06T10:44:00,mfh,49.12
2022-01-06T10:45:00,mfh,49.35
2022-01-06T10:46:00,mfh,55.20
2022-01-06T10:47:00,mfh,56.11
2022-01-06T10:48:00,mfh,55.67
2022-01-06T10:49:00,mfh,56.29
2022-01-06T10:50:00,mfh,56.17
2022-01-06T10:51:00,mfh,56.41
2022-01-06T10:52:00,mfh,56.29
2022-01-06T10:53:00,mfh,56.72
2022-01-06T10:54:00,mfh,55.37
2022-01-06T10:55:00,mfh,53.38
2022-01-06T10:56:00,mfh,53.28
2022-01-06T10:57:00,mfh,57.69
2022-01-06T10:58:00,mfh,65.51
2022-01-06T10:59:00,mfh,82.94
2022-01-06T11:00:00,mfh,84.42
2022-01-06T11:01:00,mfh,84.59
2022-01-06T11:02:00,mfh,84.29
2022-01-06T11:03:00,mfh,84.22
2022-01-06T11:04:00,mfh,84.16
2022-01-06T11:05:00,mfh,84.25
2022-01-06T11:06:00,mfh,84.09
2022-01-06T11:07:00,mfh,84.32
2022-01-06T11:08:00,mfh,84.22
2022-01-06T11:09:00,mfh,84.15
2022-01-06T11:10:00,mfh,84.06
2022-01-06T11:11:00,mfh,72.01
2022-01-06T11:12:00,mfh,64.08
2022-01-06T11:13:00,mfh,71.17
2022-01-06T11:14:00,mfh,71.24
2022-01-06T11:15:00,mfh,71.75
2022-01-06T11:16:00,mfh,78.70
2022-01-06T11:17:00,mfh,74.48
2022-01-06T11:18:00,mfh,73.70
2022-01-06T11:19:00,mfh,73.55
2022-01-06T11:20:00,mfh,64.58
2022-01-06T11:21:00,mfh,72.45
2022-01-06T11:22:00,mfh,73.08
2022-01-06T11:23:00,mfh,74.27
2022-01-06T11:24:00,mfh,74.39
2022-01-06T11:25:00,mfh,74.76
2022-01-06T11:26:00,mfh,74.35
2022-01-06T11:27:00,mfh,74.16
2022-01-06T11:28:00,mfh,72.78
2022-01-06T11:29:00,mfh,72.53
2022-01-06T11:30:00,mfh,73.40
2022-01-06T11:31:00,mfh,65.52
2022-01-06T11:32:00,mfh,66.86
2022-01-06T11:33:00,mfh,66.44
2022-01-06T11:34:00,mfh,65.34
2022-01-06T11:35:00,mfh,65.84
2022-01-06T11:36:00,mfh,64.33
2022-01-06T11:37:00,mfh,63.95
2022-01-06T11:38:00,mfh,63.81
2022-01-06T11:39:00,mfh,64.66
2022-01-06T11:40:00,mfh,65.11
2022-01-06T11:41:00,mfh,65.06
2022-01-06T11:42:00,mfh,64.29
2022-01-06T11:43:00,mfh,64.46
2022-01-06T11:44:00,mfh,63.14
2022-01-06T11:45:00,mfh,63.80
2022-01-06T11:46:00,mfh,68.60
2022-01-06T11:47:00,mfh,77.00
2022-01-06T11:48:00,mfh,77.39
2022-01-06T11:49:00,mfh,77.03
2022-01-06T11:50:00,mfh,69.50
2022-01-06T11:51:00,mfh,68.91
2022-01-06T11:52:00,mfh,68.89
2022-01-06T11:53:00,mfh,68.32
2022-01-06T11:54:00,mfh,68.35
2022-01-06T11:55:00,mfh,68.79
2022-01-06T11:56:00,mfh,67.88
2022-01-06T11:57:00,mfh,68.82
2022-01-06T11:58:00,mfh,67.86
2022-01-06T11:59:00,mfh,71.89
2022-01-06T12:00:00,mfh,69.43
2022-01-06T12:01:00,mfh,68.82
2022-01-06T12:02:00,mfh,68.92
2022-01-06T12:03:00,mfh,69.34
2022-01-06T12:04:00,mfh,69.42
2022-01-06T12:05:00,mfh,70.80
2022-01-06T12:06:00,mfh,64.95
2022-01-06T12:07:00,mfh,64.41
2022-01-06T12:08:00,mfh,56.69
2022-01-06T12:09:00,mfh,56.51
2022-01-06T12:10:00,mfh,56.09
2022-01-06T12:11:00,mfh,55.98
2022-01-06T12:12:00,mfh,55.96
2022-01-06T12:13:00,mfh,49.99
2022-01-06T12:14:00,mfh,50.13
2022-01-06T12:15:00,mfh,49.90
2022-01-06T12:16:00,mfh,50.02
2022-01-06T12:17:00,mfh,47.83
2022-01-06T12:18:00,mfh,47.37
2022-01-06T12:19:00,mfh,47.34
2022-01-06T12:20:00,mfh,47.17
2022-01-06T12:21:00,mfh,48.00
2022-01-06T12:22:00,mfh,48.19
2022-01-06T12:23:00,mfh,48.34
2022-01-06T12:24:00,mfh,47.98
2022-01-06T12:25:00,mfh,47.64
2022-01-06T12:26:00,mfh,48.01
2022-01-06T12:27:00,mfh,46.83
2022-01-06T12:28:00,mfh,47.00
2022-01-06T12:29:00,mfh,47.68
2022-01-06T12:30:00,mfh,46.84
2022-01-06T12:31:00,mfh,47.06
2022-01-06T12:32:00,mfh,46.98
2022-01-06T12:33:00,mfh,46.94
2022-01-06T12:34:00,mfh,46.89
2022-01-06T12:35:00,mfh,46.15
2022-01-06T12:36:00,mfh,46.50
2022-01-06T12:37:00,mfh,46.21
2022-01-06T12:38:00,mfh,46.42
2022-01-06T12:39:00,mfh,47.47
2022-01-06T12:40:00,mfh,47.39
2022-01-06T12:41:00,mfh,47.41
2022-01-06T12:42:00,mfh,47.44
2022-01-06T12:43:00,mfh,46.76
2022-01-06T12:44:00,mfh,46.50
2022-01-06T12:45:00,mfh,46.61
2022-01-06T12:46:00,mfh,46.70
2022-01-06T12:47:00,mfh,47.40
2022-01-06T12:48:00,mfh,47.90
2022-01-06T12:49:00,mfh,46.73
2022-01-06T12:50:00,mfh,47.18
2022-01-06T12:51:00,mfh,47.25
2022-01-06T12:52:00,mfh,46.22
2022-01-06T12:53:00,mfh,46.94
2022-01-06T12:54:00,mfh,46.18
2022-01-06T12:55:00,mfh,46.97
2022-01-06T12:56:00,mfh,47.83
2022-01-06T12:57:00,mfh,46.90
2022-01-06T12:58:00,mfh,47.41
2022-01-06T12:59:00,mfh,46.89
2022-01-06T13:00:00,mfh,46.13
2022-01-06T13:01:00,mfh,46.07
2022-01-06T13:02:00,mfh,46.08
2022-01-06T13:03:00,mfh,45.97
2022-01-06T13:04:00,mfh,46.29
2022-01-06T13:05:00,mfh,46.19
2022-01-06T13:06:00,mfh,46.52
2022-01-06T13:07:00,mfh,46.97
2022-01-06T13:08:00,mfh,45.90
2022-01-06T13:09:00,mfh,45.82
2022-01-06T13:10:00,mfh,45.28
2022-01-06T13:11:00,mfh,45.23
2022-01-06T13:12:00,mfh,45.10
2022-01-06T13:13:00,mfh,45.77
2022-01-06T13:14:00,mfh,46.80
2022-01-06T13:15:00,mfh,46.10
2022-01-06T13:16:00,mfh,46.21
2022-01-06T13:17:00,mfh,45.39
2022-01-06T13:18:00,mfh,46.00